Salida, CO

4:45 PM MDT on July 23, 2016 (GMT -0600)
Salida

Weather History for KANK - January, 2013

Change the Weather History Date:

Wednesday, January 30, 2013

  Actual Average (KGUC) Record (KGUC)
Temperature  
Mean Temperature 18 °F -  
Max Temperature 30 °F 23 °F 44 °F (2003)
Min Temperature 6 °F 0 °F -20 °F (2000)
Degree Days  
Heating Degree Days 47    
Moisture  
Dew Point 0 °F    
Average Humidity 38    
Maximum Humidity 55    
Minimum Humidity 27    
Precipitation  
Precipitation 0.00 in - - ()
Sea Level Pressure  
Sea Level Pressure 29.98 in    
Wind  
Wind Speed 13 mph (West)    
Max Wind Speed 38 mph    
Max Gust Speed 50 mph    
Visibility 10 miles    
Events      
Averages and records for this station are not official NWS values.
T = Trace of Precipitation, MM = Missing Value Source: NWS Daily Summary

Daily Weather History Graph

Daily Weather History Graph

Search for Another Location

Airport or City:

Trip Planner

Search our weather history database for the weather conditions in past years. The results will help you decide how hot, cold, wet, or windy it might be!

Date:

Astronomy

Jan. 30, 2013 Rise Set
Actual Time 7:11 AM MST 5:24 PM MST
Civil Twilight 6:43 AM MST 5:52 PM MST
Nautical Twilight 6:11 AM MST 6:24 PM MST
Astronomical Twilight 5:40 AM MST 6:55 PM MST
Moon 9:22 PM MST (1/30) 8:43 AM MST (1/30)
Length of Visible Light 11h 09m
Length of Day
10h 13m
Waning Gibbous, 87% of the Moon is Illuminated
Jan 30
Waning Gibbous
Feb 3
Last Quarter
Feb 10
New
Feb 17
First Quarter
Feb 25
Full

Hourly Weather History & Observations

Time (MST) Temp. Windchill Dew Point Humidity Pressure Visibility Wind Dir Wind Speed Gust Speed Precip Events Conditions
12:15 AM 10.8 °F 1.2 °F -4.4 °F 51% 29.94 in 10.0 mi WSW 5.8 mph - N/A   Clear
12:35 AM 9.7 °F -0.1 °F -5.4 °F 51% 29.94 in 10.0 mi WSW 5.8 mph - N/A   Clear
12:55 AM 9.5 °F -1.5 °F -6.2 °F 49% 29.95 in 10.0 mi WSW 6.9 mph - N/A   Clear
1:15 AM 8.6 °F 2.0 °F -7.1 °F 49% 29.95 in 10.0 mi West 3.5 mph - N/A   Clear
1:35 AM 7.7 °F - -7.8 °F 49% 29.95 in 10.0 mi Calm Calm - N/A   Clear
1:55 AM 8.4 °F - -7.2 °F 49% 29.95 in 10.0 mi Calm Calm - N/A   Clear
2:15 AM 9.9 °F - -5.3 °F 51% 29.95 in 10.0 mi Calm Calm - N/A   Clear
2:35 AM 9.5 °F - -6.0 °F 50% 29.94 in 10.0 mi Calm Calm - N/A   Clear
2:55 AM 6.8 °F - -6.2 °F 55% 29.94 in 10.0 mi Calm Calm - N/A   Scattered Clouds
3:15 AM 12.2 °F -2.5 °F -3.8 °F 49% 29.93 in 10.0 mi WSW 12.7 mph - N/A   Overcast
3:35 AM 15.4 °F 1.6 °F -5.6 °F 39% 29.93 in 10.0 mi WSW 12.7 mph 23.0 mph N/A   Mostly Cloudy
3:55 AM 15.1 °F -0.1 °F -5.1 °F 41% 29.92 in 10.0 mi WSW 15.0 mph 20.7 mph N/A   Scattered Clouds
4:15 AM 15.4 °F 5.6 °F -6.2 °F 38% 29.93 in 10.0 mi West 6.9 mph 19.6 mph N/A   Scattered Clouds
4:35 AM 13.8 °F 4.9 °F -6.0 °F 41% 29.93 in 10.0 mi West 5.8 mph - N/A   Scattered Clouds
5:15 AM 10.8 °F 2.7 °F -4.7 °F 50% 29.92 in 10.0 mi NW 4.6 mph - N/A   Clear
5:35 AM 9.0 °F 2.4 °F -5.1 °F 53% 29.92 in 10.0 mi WSW 3.5 mph - N/A   Clear
5:55 AM 12.7 °F 3.6 °F -6.3 °F 42% 29.94 in 10.0 mi North 5.8 mph - N/A   Scattered Clouds
6:15 AM 12.7 °F 0.4 °F -5.1 °F 45% 29.93 in 10.0 mi West 9.2 mph - N/A   Overcast
6:35 AM 14.7 °F 3.8 °F -6.0 °F 40% 29.94 in 10.0 mi West 8.1 mph - N/A   Mostly Cloudy
6:55 AM 17.4 °F 7.1 °F -5.4 °F 36% 29.94 in 10.0 mi West 8.1 mph 20.7 mph N/A   Overcast
7:15 AM 16.9 °F 7.4 °F -5.1 °F 38% 29.94 in 10.0 mi NNW 6.9 mph - N/A   Overcast
7:35 AM 12.4 °F 2.0 °F -5.1 °F 46% 29.97 in 10.0 mi NNW 6.9 mph - N/A   Overcast
7:55 AM 14.9 °F 9.2 °F -5.4 °F 40% 29.97 in 10.0 mi West 3.5 mph - N/A   Scattered Clouds
8:15 AM 16.7 °F 8.3 °F -4.2 °F 40% 29.97 in 10.0 mi WSW 5.8 mph - N/A   Clear
8:35 AM 18.9 °F - -4.2 °F 36% 29.98 in 10.0 mi Calm Calm - N/A   Clear
8:55 AM 21.4 °F 13.8 °F -3.1 °F 34% 29.99 in 10.0 mi NNW 5.8 mph - N/A   Clear
9:15 AM 23.7 °F 11.5 °F -2.7 °F 32% 29.99 in 10.0 mi West 13.8 mph 19.6 mph N/A   Clear
9:35 AM 26.2 °F 13.8 °F -2.2 °F 29% 30.00 in 10.0 mi WNW 16.1 mph 28.8 mph N/A   Clear
9:55 AM 27.9 °F 19.1 °F -1.7 °F 28% 29.98 in 10.0 mi West 9.2 mph 23.0 mph N/A   Clear
10:15 AM 29.3 °F 19.6 °F -1.1 °F 27% 29.99 in 10.0 mi West 11.5 mph 28.8 mph N/A   Clear
10:35 AM 29.5 °F 18.4 °F -0.6 °F 28% 29.98 in 10.0 mi WNW 15.0 mph 26.5 mph N/A   Clear
10:55 AM 30.6 °F 17.3 °F -0.4 °F 27% 29.99 in 10.0 mi WNW 23.0 mph 29.9 mph N/A   Clear
11:15 AM 29.8 °F 15.7 °F -0.4 °F 27% 29.99 in 10.0 mi West 25.3 mph 33.4 mph N/A   Clear
11:35 AM 28.6 °F 13.0 °F -0.8 °F 28% 29.98 in 10.0 mi West 29.9 mph 42.6 mph N/A   Clear
11:55 AM 29.8 °F 15.5 °F -0.8 °F 27% 29.96 in 10.0 mi West 26.5 mph 43.7 mph N/A   Clear
12:15 PM 30.6 °F 15.4 °F -0.4 °F 27% 29.96 in 10.0 mi West 31.1 mph 41.4 mph N/A   Clear
12:35 PM 29.3 °F 12.6 °F 0.7 °F 29% 29.97 in 10.0 mi West 36.8 mph 46.0 mph N/A   Clear
12:55 PM 29.3 °F 12.6 °F 1.2 °F 30% 29.97 in 7.0 mi West 36.8 mph 49.5 mph N/A   Clear
1:15 PM 29.5 °F 12.7 °F 0.5 °F 29% 29.97 in 10.0 mi West 38.0 mph 43.7 mph N/A   Clear
1:35 PM 29.5 °F 12.9 °F 1.4 °F 30% 29.97 in 10.0 mi West 36.8 mph 47.2 mph N/A   Clear
1:55 PM 29.8 °F 13.6 °F 1.6 °F 30% 29.98 in 10.0 mi West 35.7 mph 43.7 mph N/A   Clear
2:15 PM 29.3 °F 13.5 °F 2.1 °F 31% 29.98 in 10.0 mi West 32.2 mph 43.7 mph N/A   Scattered Clouds
2:35 PM 29.7 °F 14.2 °F 2.7 °F 32% 29.99 in 10.0 mi West 31.1 mph 43.7 mph N/A   Scattered Clouds
2:55 PM 30.7 °F 15.2 °F 3.9 °F 32% 30.00 in 10.0 mi West 33.4 mph 47.2 mph N/A   Mostly Cloudy
3:15 PM 30.6 °F 15.9 °F 4.3 °F 33% 30.01 in 10.0 mi West 28.8 mph 44.9 mph N/A   Overcast
3:35 PM 30.6 °F 15.4 °F 5.9 °F 35% 30.00 in 10.0 mi West 31.1 mph 40.3 mph N/A   Overcast
3:55 PM 30.0 °F 15.2 °F 5.0 °F 35% 30.00 in 10.0 mi West 28.8 mph 39.1 mph N/A   Overcast
4:15 PM 30.0 °F 15.7 °F 3.6 °F 33% 30.01 in 10.0 mi West 26.5 mph 32.2 mph N/A   Mostly Cloudy
4:35 PM 28.6 °F 13.8 °F 5.0 °F 37% 30.01 in 10.0 mi West 26.5 mph 44.9 mph N/A   Mostly Cloudy
4:55 PM 28.4 °F 13.5 °F 5.2 °F 37% 30.00 in 10.0 mi West 26.5 mph 38.0 mph N/A   Scattered Clouds
5:15 PM 28.8 °F 13.2 °F 4.5 °F 36% 30.00 in 10.0 mi West 29.9 mph 41.4 mph N/A   Clear
5:35 PM 29.1 °F 12.8 °F 4.8 °F 36% 29.99 in 10.0 mi West 34.5 mph 48.3 mph N/A   Clear
5:55 PM 29.1 °F 13.2 °F 4.8 °F 36% 29.98 in 10.0 mi West 32.2 mph 41.4 mph N/A   Clear
6:15 PM 29.3 °F 13.3 °F 5.0 °F 36% 29.97 in 10.0 mi WSW 33.4 mph 47.2 mph N/A   Clear
6:35 PM 29.5 °F 12.9 °F 5.4 °F 36% 29.99 in 10.0 mi West 36.8 mph 49.5 mph N/A   Clear
6:55 PM 29.8 °F 14.9 °F 5.2 °F 35% 30.00 in 10.0 mi West 28.8 mph 38.0 mph N/A   Clear
7:15 PM 30.2 °F 16.5 °F 5.0 °F 34% 30.00 in 10.0 mi West 24.2 mph 36.8 mph N/A   Clear
7:35 PM 30.2 °F 15.9 °F 5.0 °F 34% 30.01 in 10.0 mi West 26.5 mph 36.8 mph N/A   Clear
7:55 PM 29.7 °F 18.2 °F 5.9 °F 37% 30.02 in 10.0 mi WSW 16.1 mph 31.1 mph N/A   Clear
8:15 PM 29.8 °F 17.7 °F 6.1 °F 37% 30.03 in 10.0 mi WSW 18.4 mph 27.6 mph N/A   Scattered Clouds
8:35 PM 30.0 °F 16.6 °F 6.4 °F 37% 30.03 in 10.0 mi WSW 23.0 mph 33.4 mph N/A   Scattered Clouds
8:55 PM 29.8 °F 17.3 °F 7.3 °F 39% 30.03 in 10.0 mi WSW 19.6 mph 33.4 mph N/A   Scattered Clouds
9:15 PM 29.7 °F 15.8 °F 7.7 °F 40% 30.04 in 10.0 mi West 24.2 mph 34.5 mph N/A   Clear
9:35 PM 30.0 °F 16.6 °F 7.7 °F 39% 30.04 in 10.0 mi WSW 23.0 mph 31.1 mph N/A   Scattered Clouds
9:55 PM 30.2 °F 18.1 °F 8.1 °F 39% 30.04 in 10.0 mi WSW 18.4 mph 32.2 mph N/A   Clear
10:15 PM 29.8 °F 17.3 °F 8.8 °F 41% 30.05 in 10.0 mi West 19.6 mph 33.4 mph N/A   Scattered Clouds
10:35 PM 30.0 °F 17.5 °F 8.8 °F 41% 30.05 in 10.0 mi West 19.6 mph 32.2 mph N/A   Scattered Clouds
10:55 PM 30.0 °F 16.6 °F 9.1 °F 42% 30.06 in 10.0 mi West 23.0 mph 31.1 mph N/A   Mostly Cloudy
11:15 PM 30.6 °F 17.6 °F 9.0 °F 40% 30.06 in 10.0 mi West 21.9 mph 31.1 mph N/A   Mostly Cloudy
11:35 PM 30.6 °F 17.6 °F 8.6 °F 40% 30.06 in 10.0 mi West 21.9 mph 31.1 mph N/A   Scattered Clouds
11:55 PM 30.9 °F 17.2 °F 8.6 °F 39% 30.06 in 10.0 mi West 25.3 mph 39.1 mph N/A   Clear